Location: Unspecified
(0.0000°N, 0.0000°E)
Time: 23:58:56
(UTC+00:00)

STRAND 1 - Visible Passes

Search period start: 18 August 2019 00:00
Search period end: 28 August 2019 00:00
Orbit: 767 x 782 km, 98.5° (Epoch: 16 August)

Date Brightness Start Highest point End Pass type
(mag) Time Alt. Az. Time Alt. Az. Time Alt. Az.
18 Aug ? 19:47:00 10° NNW 19:51:28 32° WNW 19:56:00 10° SW visible
19 Aug ? 19:12:29 10° N 19:17:35 85° W 19:22:43 10° SSW visible
20 Aug ? 18:39:03 10° NE 18:43:41 36° ESE 18:48:21 10° SSE visible
20 Aug ? 20:20:17 10° NW 20:22:35 13° WNW 20:24:54 10° WSW visible
21 Aug ? 19:44:07 10° NNW 19:48:42 34° WNW 19:53:19 10° SW visible
22 Aug ? 19:09:42 10° NNE 19:14:48 89° E 19:19:57 10° SSW visible
23 Aug ? 18:36:21 10° NE 18:40:55 33° ESE 18:45:30 10° SSE visible
23 Aug ? 20:17:09 10° NW 20:19:49 14° WNW 20:22:29 10° WSW visible
24 Aug ? 19:41:15 10° N 19:45:56 37° WNW 19:50:39 10° SW visible
25 Aug ? 19:06:55 10° NNE 19:12:01 83° ESE 19:17:10 10° S visible
26 Aug ? 18:33:40 10° NE 18:38:09 31° ESE 18:42:38 10° SSE visible
26 Aug ? 20:14:05 10° NW 20:17:02 16° WNW 20:20:00 10° WSW visible
27 Aug ? 19:38:24 10° N 19:43:09 40° WNW 19:47:57 10° SSW visible
